Voltar ao catálogo

CZ-3A DEB

LostHEO
NORAD 40156·DEBRIS·🇨🇳 China

Lançado Feb 2, 2007 de Xichang Satellite Launch Center

Loading…

Próximas Passagens (próximas 24 horas)

TLE

ObsoletoSource: Space-Track

Época: Oct 30, 2022, 04:16 UTC

1 40156U 07003AQ  22303.17838913  .00000066  00000-0  48402-3 0  9999
2 40156  25.8485 261.8383 7543012 241.5232 207.2155  1.84547705 84502

Acompanhe CZ-3A DEB em tempo real com AllMySat

Download on the App Store